Kelso-Longview, WA
on Monday, January 7, 2013

Monday
Previous Day Next Day
Daily Summary
 ActualAverage (KSPB)Record (KSPB)
Temperature
Mean Temperature °F °F  
Max Temperature 50°F °F 57°F (2002)
Min Temperature 44°F °F 23°F (2004)
Degree Days
Heating Degree Days 18    
Month to date heating degree days  
Since 1 July heating degree days  
Cooling Degree Days 0    
Month to date cooling degree days  
Year to date cooling degree days  
Moisture
Dew Point 43°F   
Average Humidity 89    
Maximum Humidity 93    
Minimum Humidity 76    
Precipitation
Precipitation 0.53 in in 1.54 in (2002)
Month to date precipitation  
Year to date precipitation  
Wind
Wind Speed 10 mph   
Max Wind Speed 17 mph   
Max Gust Speed 25 mph   
Visibility 8 miles   
Events     

Key: T is trace of precipitation, MM is missing value
Source: NWS Daily Summary
Time(PST)TemperatureDew PointHumidity Pressure Visibility Wind DirectionWind SpeedGust SpeedPrecipitationEvents Conditions
12:15 AM 44.6°F 39.2°F 81% 30.03 in 10.0 miles SE 10.4 mph 17.3 mph 0.01 in   Overcast
12:35 AM 44.6°F 39.2°F 81% 30.03 in 10.0 miles SSE 15.0 mph 19.6 mph 0.03 in   Overcast
12:55 AM 44.6°F 39.2°F 81% 30.02 in 10.0 miles SE 11.5 mph 18.4 mph 0.04 in   Overcast
1:15 AM 44.6°F 39.2°F 81% 30.00 in 10.0 miles SE 13.8 mph 19.6 mph N/A   Overcast
1:35 AM 44.6°F 39.2°F 81% 30.02 in 10.0 miles SE 12.7 mph 20.7 mph 0.01 in   Overcast
1:55 AM 44.6°F 39.2°F 81% 30.02 in 6.0 miles SSE 15.0 mph - 0.01 in   Overcast
2:15 AM 44.6°F 41.0°F 87% 30.01 in 9.0 miles SE 13.8 mph 19.6 mph N/A   Overcast
2:35 AM 44.6°F 41.0°F 87% 30.00 in 10.0 miles SE 15.0 mph 21.9 mph 0.01 in   Overcast
2:55 AM 46.4°F 39.2°F 76% 30.00 in 10.0 miles SE 13.8 mph 20.7 mph 0.01 in   Overcast
3:15 AM 44.6°F 41.0°F 87% 30.00 in 10.0 miles SE 13.8 mph 20.7 mph N/A   Overcast
3:35 AM 44.6°F 41.0°F 87% 30.00 in 5.0 miles SE 15.0 mph 23.0 mph 0.01 in   Overcast
4:35 AM 44.6°F 41.0°F 87% 29.99 in 10.0 miles SE 13.8 mph 19.6 mph 0.07 in   Overcast
4:55 AM 44.6°F 41.0°F 87% 29.98 in 10.0 miles SE 17.3 mph 23.0 mph 0.12 in   Overcast
5:15 AM 44.6°F 41.0°F 87% 29.96 in 10.0 miles SE 11.5 mph 24.2 mph 0.03 in   Mostly Cloudy
5:35 AM 44.6°F 41.0°F 87% 29.97 in 10.0 miles SSE 15.0 mph 25.3 mph 0.06 in   Mostly Cloudy
5:55 AM 44.6°F 41.0°F 87% 29.96 in 10.0 miles SE 16.1 mph 24.2 mph 0.10 in   Overcast
6:15 AM 44.6°F 42.8°F 93% 29.95 in 10.0 miles SE 13.8 mph 20.7 mph 0.02 in   Overcast
6:35 AM 46.4°F 42.8°F 87% 29.97 in 10.0 miles SE 15.0 mph 19.6 mph 0.04 in   Overcast
6:55 AM 46.4°F 42.8°F 87% 29.97 in 9.0 miles SSE 11.5 mph 18.4 mph 0.06 in   Overcast
7:15 AM 44.6°F 42.8°F 93% 29.97 in 8.0 miles SE 10.4 mph 20.7 mph 0.03 in   Overcast
7:35 AM 44.6°F 42.8°F 93% 29.97 in 9.0 miles SSE 11.5 mph 18.4 mph 0.04 in   Overcast
7:55 AM 44.6°F 42.8°F 93% 29.98 in 5.0 miles SSE 12.7 mph - 0.06 in   Overcast
8:15 AM 44.6°F 42.8°F 93% 29.98 in 3.0 miles SE 11.5 mph - 0.01 in   Overcast
8:35 AM 46.4°F 42.8°F 87% 29.99 in 7.0 miles SSE 12.7 mph - 0.02 in   Overcast
8:55 AM 46.4°F 42.8°F 87% 30.00 in 10.0 miles SSE 12.7 mph 20.7 mph 0.02 in   Overcast
9:15 AM 46.4°F 42.8°F 87% 30.02 in 10.0 miles SE 13.8 mph 19.6 mph N/A   Overcast
9:35 AM 46.4°F 42.8°F 87% 30.03 in 5.0 miles SSE 12.7 mph 20.7 mph N/A   Overcast
9:55 AM 46.4°F 44.6°F 93% 30.03 in 10.0 miles SSE 11.5 mph 21.9 mph N/A   Overcast
10:15 AM 46.4°F 44.6°F 93% 30.05 in 10.0 miles SSE 13.8 mph - N/A   Overcast
10:35 AM 46.4°F 44.6°F 93% 30.06 in 5.0 miles SSE 9.2 mph - 0.01 in   Overcast
11:15 AM 46.4°F 44.6°F 93% 30.06 in 3.0 miles SSE 12.7 mph - 0.01 in   Overcast
11:35 AM 46.4°F 44.6°F 93% 30.06 in 3.0 miles SSE 9.2 mph - 0.02 in   Overcast
11:55 AM 46.4°F 44.6°F 93% 30.07 in 6.0 miles SSE 9.2 mph - 0.02 in   Overcast
12:15 PM 48.2°F 44.6°F 87% 30.08 in 3.0 miles SE 8.1 mph - N/A   Overcast
12:55 PM 48.2°F 46.4°F 93% 30.08 in 2.5 miles SSE 8.1 mph - 0.01 in   Mostly Cloudy
1:15 PM 48.2°F 46.4°F 93% 30.08 in 9.0 miles SE 8.1 mph - 0.01 in   Overcast
1:35 PM 48.2°F 46.4°F 93% 30.08 in 8.0 miles SSE 6.9 mph - 0.01 in   Mostly Cloudy
1:55 PM 48.2°F 46.4°F 93% 30.10 in 3.0 miles SSE 9.2 mph - 0.01 in   Overcast
2:15 PM 50.0°F 46.4°F 87% 30.12 in 7.0 miles SE 4.6 mph - N/A   Overcast
2:35 PM 50.0°F 46.4°F 87% 30.12 in 2.0 miles Calm Calm - 0.01 in   Overcast
2:55 PM 50.0°F 46.4°F 87% 30.13 in 9.0 miles WSW 4.6 mph - 0.01 in   Mostly Cloudy
3:15 PM 50.0°F 46.4°F 87% 30.13 in 3.0 miles SSE 3.5 mph - N/A   Overcast
3:35 PM 50.0°F 46.4°F 87% 30.15 in 10.0 miles Calm Calm - N/A   Overcast
3:55 PM 48.2°F 46.4°F 93% 30.15 in 9.0 miles Calm Calm - N/A   Overcast
4:15 PM 48.2°F 44.6°F 87% 30.15 in 4.0 miles WNW 3.5 mph - N/A   Overcast
4:35 PM 48.2°F 44.6°F 87% 30.14 in 8.0 miles Calm Calm - 0.01 in   Overcast
4:55 PM 48.2°F 44.6°F 87% 30.16 in 10.0 miles Calm Calm - 0.01 in   Overcast
5:15 PM 48.2°F 44.6°F 87% 30.16 in 5.0 miles WSW 4.6 mph - 0.03 in   Overcast
5:35 PM 46.4°F 44.6°F 93% 30.17 in 5.0 miles WSW 4.6 mph - 0.03 in   Overcast
5:55 PM 46.4°F 42.8°F 87% 30.17 in 9.0 miles Calm Calm - 0.03 in   Overcast
6:15 PM 46.4°F 44.6°F 93% 30.18 in 10.0 miles Calm Calm - N/A   Overcast
6:35 PM 46.4°F 42.8°F 87% 30.19 in 10.0 miles NW 3.5 mph - N/A   Overcast
6:55 PM 46.4°F 42.8°F 87% 30.19 in 10.0 miles Calm Calm - N/A   Overcast
7:15 PM 46.4°F 42.8°F 87% 30.20 in 9.0 miles Calm Calm - N/A   Overcast
7:35 PM 46.4°F 42.8°F 87% 30.19 in 9.0 miles Calm Calm - N/A   Overcast
7:55 PM 46.4°F 42.8°F 87% 30.19 in 8.0 miles Calm Calm - N/A   Overcast
8:15 PM 44.6°F 42.8°F 93% 30.19 in 7.0 miles Calm Calm - N/A   Overcast
8:35 PM 46.4°F 42.8°F 87% 30.20 in 8.0 miles Calm Calm - N/A   Overcast
8:55 PM 44.6°F 42.8°F 93% 30.21 in 7.0 miles Calm Calm - N/A   Overcast
9:15 PM 44.6°F 42.8°F 93% 30.20 in 8.0 miles Calm Calm - N/A   Overcast
9:35 PM 44.6°F 42.8°F 93% 30.20 in 7.0 miles Calm Calm - N/A   Overcast
9:55 PM 44.6°F 42.8°F 93% 30.20 in 7.0 miles Calm Calm - N/A   Overcast
10:15 PM 44.6°F 42.8°F 93% 30.21 in 7.0 miles Calm Calm - N/A   Overcast
10:55 PM 44.6°F 42.8°F 93% 30.20 in 8.0 miles SSE 4.6 mph - N/A   Overcast
11:15 PM 44.6°F 42.8°F 93% 30.21 in 10.0 miles Calm Calm - N/A   Overcast
11:35 PM 44.6°F 42.8°F 93% 30.20 in 10.0 miles ESE 3.5 mph - N/A   Overcast
11:55 PM 44.6°F 42.8°F 93% 30.20 in 10.0 miles SE 4.6 mph - N/A   Overcast
Moon Phase
Jan. 07 Jan. 11 Jan. 18 Jan. 26 Feb. 03
Sunrise:07:53 AM (PST) Moon Rise:03:19 AM (PST)1/7
Sunset:04:43 PM (PST) Moon Set:01:01 PM (PST)1/7

Copyright © 2014 The Weather Underground, Inc.